Time_in_sec,gx,gy,gz
1326901178.37255788,-0.00395206,0.02033190,-0.99978547
1326901178.42533731,-0.00394553,0.02010719,-0.99979004
1326901178.47358727,-0.00393096,0.01992430,-0.99979376
1326901178.52148390,-0.00374497,0.01999150,-0.99979314
1326901178.57348943,-0.00387015,0.01999591,-0.99979257
1326901178.62564802,-0.00356028,0.01984024,-0.99979682
1326901178.67250538,-0.00348583,0.01987506,-0.99979639
1326901178.72148538,-0.00345498,0.01963706,-0.99980120
1326901178.77365136,-0.00345932,0.01968278,-0.99980029
1326901178.82153654,-0.00350404,0.01999895,-0.99979386
1326901178.87252736,-0.00339717,0.01995474,-0.99979511
1326901178.92463136,-0.00341086,0.02016809,-0.99979079
1326901178.97351241,-0.00364548,0.01986822,-0.99979596
1326901179.02508330,-0.00376621,0.01986906,-0.99979550
1326901179.07284594,-0.00386743,0.01994986,-0.99979350
1326901179.12377453,-0.00381721,0.01985140,-0.99979565
1326901179.17365599,-0.00375053,0.01989315,-0.99979508
1326901179.22156382,-0.00373603,0.01955814,-0.99980174
1326901179.27350140,-0.00359186,0.01937462,-0.99980584
1326901179.32566428,-0.00369232,0.01950519,-0.99980294
1326901179.37350941,-0.00358488,0.01966247,-0.99980025
1326901179.42557120,-0.00361092,0.01958308,-0.99980171
1326901179.47365570,-0.00389807,0.01945377,-0.99980316
1326901179.52151251,-0.00367940,0.01965297,-0.99980009
1326901179.57405519,-0.00378909,0.01965156,-0.99979971
1326901179.62478876,-0.00374758,0.01975915,-0.99979775
1326901179.66552281,-0.00375376,0.01991601,-0.99979461
1326901179.72458386,-0.00362959,0.01964263,-0.99980048
1326901179.77356434,-0.00374150,0.01986845,-0.99979560
1326901179.82551646,-0.00380909,0.01994068,-0.99979391
1326901179.87353086,-0.00390010,0.02006796,-0.99979101
1326901179.92554593,-0.00385346,0.02022696,-0.99978799
1326901179.97433829,-0.00403154,0.02037970,-0.99978418
1326901180.02479219,-0.00414618,0.02049785,-0.99978130
1326901180.07353926,-0.00420780,0.02063113,-0.99977830
1326901180.12187648,-0.00444008,0.02060029,-0.99977793
1326901180.17350769,-0.00436506,0.02052943,-0.99977972
1326901180.22469330,-0.00408012,0.02014727,-0.99978870
1326901180.27252460,-0.00406560,0.02007448,-0.99979022
1326901180.32485580,-0.00407929,0.02005598,-0.99979054
1326901180.37257552,-0.00429325,0.02003712,-0.99979002
1326901180.42563248,-0.00421972,0.02033110,-0.99978440
1326901180.47251916,-0.00451579,0.02050983,-0.99977945
1326901180.52451992,-0.00475215,0.02069107,-0.99977462
1326901180.57350564,-0.00476429,0.02106567,-0.99976674
1326901180.62152982,-0.00469123,0.02119762,-0.99976430
1326901180.67251396,-0.00470875,0.02126903,-0.99976270
1326901180.72359133,-0.00499394,0.02117773,-0.99976325
1326901180.77392411,-0.00501971,0.02144987,-0.99975732
1326901180.82454371,-0.00510531,0.02140461,-0.99975786
1326901180.87356853,-0.00517612,0.02143300,-0.99975689
1326901180.92455077,-0.00504873,0.02151286,-0.99975582
1326901180.97352362,-0.00501071,0.02144157,-0.99975755
1326901181.02536964,-0.00526310,0.02175083,-0.99974957
1326901181.07359195,-0.00530039,0.02197459,-0.99974448
1326901181.12148881,-0.00526487,0.02188852,-0.99974655
1326901181.17297935,-0.00524926,0.02191757,-0.99974600
1326901181.22535825,-0.00565340,0.02158714,-0.99975099
1326901181.27361107,-0.00562194,0.02154805,-0.99975201
1326901181.32862139,-0.00585326,0.02148307,-0.99975208
1326901181.37350941,-0.00602102,0.02154635,-0.99974972
1326901181.42121768,-0.00624960,0.02137844,-0.99975192
1326901181.47301030,-0.00640273,0.02129475,-0.99975274
1326901181.52148724,-0.00643839,0.02140424,-0.99975017
1326901181.57326412,-0.00658829,0.02130290,-0.99975136
1326901181.62454534,-0.00659829,0.02142074,-0.99974878
1326901181.67263317,-0.00648609,0.02147445,-0.99974836
1326901181.72565341,-0.00633472,0.02129666,-0.99975313
1326901181.77350783,-0.00623601,0.02140061,-0.99975153
1326901181.82109380,-0.00634733,0.02122677,-0.99975454
1326901181.87267733,-0.00635540,0.02132481,-0.99975240
1326901181.92560887,-0.00621683,0.02143315,-0.99975095
1326901181.97254372,-0.00583074,0.02124821,-0.99975723
1326901182.02110600,-0.00589091,0.02107868,-0.99976046
1326901182.07352805,-0.00601394,0.02101814,-0.99976101
1326901182.12565184,-0.00605401,0.02118015,-0.99975735
1326901182.17351794,-0.00590949,0.02094952,-0.99976307
1326901182.22451043,-0.00596453,0.02073839,-0.99976714
1326901182.27354026,-0.00622260,0.02083563,-0.99976355
1326901182.32550287,-0.00612254,0.02074501,-0.99976605
1326901182.37354493,-0.00605088,0.02075802,-0.99976622
1326901182.42564511,-0.00614708,0.02084081,-0.99976391
1326901182.47354817,-0.00609120,0.02071796,-0.99976680
1326901182.52499008,-0.00603203,0.02046862,-0.99977230
1326901182.57350922,-0.00631485,0.02052380,-0.99976942
1326901182.62451220,-0.00606777,0.02058969,-0.99976960
1326901182.67295146,-0.00610709,0.02055864,-0.99977000
1326901182.72284937,-0.00625868,0.02053542,-0.99976954
1326901182.77357817,-0.00608311,0.02073453,-0.99976651
1326901182.82464623,-0.00619166,0.02084433,-0.99976356
1326901182.87349987,-0.00607269,0.02097372,-0.99976158
1326901182.92453313,-0.00626745,0.02110220,-0.99975768
1326901182.97350836,-0.00616441,0.02097848,-0.99976092
1326901183.02550054,-0.00635929,0.02111916,-0.99975674
1326901183.07254362,-0.00612647,0.02121934,-0.99975607
1326901183.12551880,-0.00633780,0.02127170,-0.99975364
1326901183.17391205,-0.00631464,0.02116404,-0.99975607
1326901183.22564316,-0.00610046,0.02112850,-0.99975816
1326901183.27386379,-0.00613794,0.02117052,-0.99975704
1326901183.32473469,-0.00615170,0.02128357,-0.99975455
1326901183.37352538,-0.00608762,0.02139443,-0.99975258
1326901183.42454886,-0.00591282,0.02129396,-0.99975577
1326901183.47263765,-0.00582866,0.02084652,-0.99976570
1326901183.52668691,-0.00626408,0.02072308,-0.99976563
1326901183.57255149,-0.00643028,0.02078482,-0.99976329
1326901183.62463665,-0.00667233,0.02071144,-0.99976323
1326901183.67256546,-0.00677460,0.02061550,-0.99976453
1326901183.72462749,-0.00691937,0.02040658,-0.99976782
1326901183.77361131,-0.00665132,0.02050921,-0.99976754
1326901183.82151270,-0.00663559,0.02062407,-0.99976528
1326901183.87250662,-0.00669521,0.02061884,-0.99976499
1326901183.92419314,-0.00679771,0.02057580,-0.99976519
1326901183.97253585,-0.00665815,0.02040866,-0.99976955
1326901184.02551556,-0.00669156,0.02017438,-0.99977408
1326901184.07349777,-0.00639010,0.02031935,-0.99977312
1326901184.12552047,-0.00623256,0.02031872,-0.99977413
1326901184.17350769,-0.00613360,0.02035920,-0.99977392
1326901184.22451806,-0.00597109,0.02044825,-0.99977308
1326901184.27264929,-0.00599208,0.02056293,-0.99977060
1326901184.32151651,-0.00609200,0.02082699,-0.99976453
1326901184.37258983,-0.00627458,0.02097539,-0.99976030
1326901184.42555976,-0.00631666,0.02091940,-0.99976121
1326901184.47252464,-0.00642845,0.02092798,-0.99976032
1326901184.52511930,-0.00640865,0.02110707,-0.99975668
1326901184.57351565,-0.00650052,0.02123819,-0.99975331
1326901184.62122607,-0.00636755,0.02122964,-0.99975435
1326901184.67252898,-0.00641051,0.02141941,-0.99975003
1326901184.72148228,-0.00612350,0.02133515,-0.99975363
1326901184.77250457,-0.00597156,0.02135157,-0.99975420
1326901184.82510376,-0.00606422,0.02165184,-0.99974718
1326901184.87254453,-0.00585758,0.02155166,-0.99975058
1326901184.92549491,-0.00592673,0.02141610,-0.99975308
1326901184.97352600,-0.00601173,0.02138119,-0.99975332
1326901185.02547836,-0.00619924,0.02131223,-0.99975365
1326901185.07248998,-0.00601198,0.02132167,-0.99975459
1326901185.12443399,-0.00634272,0.02127230,-0.99975360
1326901185.17302561,-0.00638796,0.02142639,-0.99975002
1326901185.22455931,-0.00673338,0.02143506,-0.99974757
1326901185.27251434,-0.00711095,0.02132859,-0.99974723
1326901185.32566333,-0.00719531,0.02125327,-0.99974823
1326901185.37350583,-0.00711490,0.02111125,-0.99975182
1326901185.42489862,-0.00715948,0.02120119,-0.99974959
1326901185.47292280,-0.00719610,0.02102609,-0.99975303
1326901185.52358079,-0.00697215,0.02089272,-0.99975741
1326901185.57255983,-0.00710925,0.02117047,-0.99975060
1326901185.62563682,-0.00721388,0.02119455,-0.99974934
1326901185.67350650,-0.00724491,0.02115638,-0.99974993
1326901185.72484851,-0.00729515,0.02087534,-0.99975547
1326901185.77352214,-0.00741034,0.02085153,-0.99975512
1326901185.82566500,-0.00751886,0.02099394,-0.99975133
1326901185.87259603,-0.00762089,0.02113861,-0.99974751
1326901185.92550087,-0.00777078,0.02138788,-0.99974105
1326901185.97265363,-0.00801902,0.02108254,-0.99974558
1326901186.02552438,-0.00818431,0.02115767,-0.99974265
1326901186.07351637,-0.00831146,0.02149805,-0.99973434
1326901186.12573671,-0.00841788,0.02150805,-0.99973324
1326901186.17375731,-0.00835383,0.02142711,-0.99973551
1326901186.22457743,-0.00835708,0.02147706,-0.99973441
1326901186.27357864,-0.00817560,0.02145645,-0.99973636
1326901186.32153916,-0.00795300,0.02170915,-0.99973270
1326901186.37614751,-0.00800077,0.02162985,-0.99973403
1326901186.42462850,-0.00806824,0.02173911,-0.99973112
1326901186.47653079,-0.00749942,0.02196602,-0.99973059
1326901186.52457833,-0.00766381,0.02212027,-0.99972594
1326901186.57350779,-0.00763054,0.02202963,-0.99972820
1326901186.62455106,-0.00749436,0.02210490,-0.99972757
1326901186.67251873,-0.00768204,0.02221619,-0.99972368
1326901186.72550774,-0.00761440,0.02223304,-0.99972382
1326901186.77656078,-0.00734925,0.02216495,-0.99972731
1326901186.82542086,-0.00724789,0.02221763,-0.99972689
1326901186.87254000,-0.00724459,0.02242521,-0.99972227
1326901186.92157817,-0.00710904,0.02273005,-0.99971636
1326901186.97352028,-0.00747565,0.02249211,-0.99971907
1326901187.02540207,-0.00772690,0.02274490,-0.99971144
1326901187.07256794,-0.00767508,0.02275779,-0.99971155
1326901187.12148976,-0.00779199,0.02294647,-0.99970633
1326901187.17270303,-0.00797484,0.02294840,-0.99970484
1326901187.22142243,-0.00813442,0.02245518,-0.99971476
1326901187.27355433,-0.00804133,0.02266234,-0.99971084
1326901187.32556391,-0.00817634,0.02262952,-0.99971048
1326901187.37350774,-0.00823083,0.02281066,-0.99970592
1326901187.42640042,-0.00805207,0.02267046,-0.99971057
1326901187.47250652,-0.00809703,0.02240922,-0.99971609
1326901187.52268553,-0.00802327,0.02230347,-0.99971905
1326901187.57664394,-0.00809793,0.02222951,-0.99972010
1326901187.62157273,-0.00793232,0.02230946,-0.99971964
1326901187.67350626,-0.00797590,0.02223219,-0.99972102
1326901187.72554302,-0.00820662,0.02212024,-0.99972163
1326901187.77354002,-0.00825984,0.02221021,-0.99971920
1326901187.82113862,-0.00829746,0.02233730,-0.99971606
1326901187.87266016,-0.00829105,0.02240205,-0.99971466
1326901187.92579365,-0.00838995,0.02247477,-0.99971221
1326901187.97365165,-0.00893691,0.02189897,-0.99972024
1326901188.02556252,-0.00893972,0.02196784,-0.99971871
1326901188.07350588,-0.00898018,0.02184176,-0.99972111
1326901188.12566614,-0.00892734,0.02184071,-0.99972160
1326901188.17354369,-0.00896708,0.02200411,-0.99971767
1326901188.22562766,-0.00888805,0.02192051,-0.99972021
1326901188.27286363,-0.00893938,0.02206176,-0.99971664
1326901188.32664871,-0.00898686,0.02196617,-0.99971832
1326901188.37249494,-0.00890592,0.02193296,-0.99971978
1326901188.42564964,-0.00912087,0.02193620,-0.99971777
1326901188.47251916,-0.00919330,0.02156121,-0.99972526
1326901188.52487588,-0.00915821,0.02170911,-0.99972238
1326901188.57350421,-0.00919005,0.02160709,-0.99972430
1326901188.62559128,-0.00927966,0.02165599,-0.99972241
1326901188.67253208,-0.00940079,0.02158865,-0.99972274
1326901188.72484922,-0.00898978,0.02131589,-0.99973237
1326901188.77354884,-0.00910683,0.02149586,-0.99972746
1326901188.82486916,-0.00914103,0.02155348,-0.99972591
1326901188.87350678,-0.00905428,0.02177391,-0.99972192
1326901188.92568135,-0.00890060,0.02180296,-0.99972267
1326901188.97350359,-0.00861693,0.02159239,-0.99972972
1326901189.02556729,-0.00852401,0.02179623,-0.99972610
1326901189.07254410,-0.00860943,0.02184827,-0.99972423
1326901189.12551236,-0.00858650,0.02196161,-0.99972194
1326901189.17366624,-0.00867725,0.02171425,-0.99972656
1326901189.22484398,-0.00866044,0.02172279,-0.99972652
1326901189.27354026,-0.00886528,0.02187451,-0.99972142
1326901189.32463455,-0.00903050,0.02192320,-0.99971887
1326901189.37353683,-0.00884180,0.02211424,-0.99971635
1326901189.42458582,-0.00889466,0.02206195,-0.99971704
1326901189.47261691,-0.00880487,0.02230613,-0.99971241
1326901189.52156639,-0.00876809,0.02246248,-0.99970924
1326901189.57254624,-0.00883394,0.02255600,-0.99970655
1326901189.62174296,-0.00882090,0.02277511,-0.99970170
1326901189.67357349,-0.00881975,0.02259180,-0.99970587
1326901189.72456431,-0.00898497,0.02264411,-0.99970321
1326901189.77351236,-0.00902171,0.02282329,-0.99969881
1326901189.82151914,-0.00894916,0.02282753,-0.99969936
1326901189.87264228,-0.00894208,0.02292095,-0.99969729
1326901189.92529345,-0.00878638,0.02313515,-0.99969374
1326901189.97251034,-0.00916902,0.02392313,-0.99967175
1326901190.02151442,-0.00895113,0.02398611,-0.99967222
1326901190.07783318,-0.00906870,0.02405735,-0.99966945
1326901190.12234354,-0.00913270,0.02433244,-0.99966221
1326901190.17362976,-0.00926981,0.02438508,-0.99965966
1326901190.22531080,-0.00882643,0.02385639,-0.99967643
1326901190.27274156,-0.00882018,0.02396051,-0.99967400
1326901190.32151175,-0.00889089,0.02426518,-0.99966602
1326901190.37286901,-0.00888936,0.02433514,-0.99966433
1326901190.42116976,-0.00908821,0.02454141,-0.99965750
1326901190.47349763,-0.00892010,0.02432117,-0.99966440
1326901190.52152443,-0.00894514,0.02430452,-0.99966458
1326901190.57353497,-0.00878283,0.02438599,-0.99966404
1326901190.61359096,-0.00866639,0.02426319,-0.99966804
1326901190.67251730,-0.00865162,0.02432746,-0.99966661
1326901190.72148395,-0.00858536,0.02358318,-0.99968501
1326901190.77315903,-0.00868699,0.02353303,-0.99968532
1326901190.82116294,-0.00848707,0.02380204,-0.99968067
1326901190.86567783,-0.00853410,0.02392222,-0.99967740
1326901190.92463231,-0.00864530,0.02399085,-0.99967480
1326901190.97350931,-0.00908428,0.02308074,-0.99969233
1326901191.02465034,-0.00905057,0.02300218,-0.99969445
1326901191.07263207,-0.00928446,0.02299936,-0.99969237
1326901191.11376905,-0.00904797,0.02301795,-0.99969411
1326901191.17365813,-0.00909980,0.02310055,-0.99969173
1326901191.22491908,-0.00920832,0.02213082,-0.99971268
1326901191.27251410,-0.00890817,0.02206583,-0.99971683
1326901191.32553077,-0.00887732,0.02204722,-0.99971752
1326901191.37350702,-0.00875106,0.02216127,-0.99971611
1326901191.41252470,-0.00889795,0.02220911,-0.99971375
1326901191.47252536,-0.00918511,0.02087601,-0.99973988
1326901191.53077388,-0.00923270,0.02105090,-0.99973577
1326901191.57295084,-0.00924681,0.02112069,-0.99973417
1326901191.61355424,-0.00918050,0.02118637,-0.99973339
1326901191.67353749,-0.00905750,0.02140801,-0.99972979
1326901191.72473550,-0.00890246,0.02072214,-0.99974564
1326901191.77351117,-0.00876988,0.02075382,-0.99974615
1326901191.82565236,-0.00884858,0.02089687,-0.99974248
1326901191.87276435,-0.00902586,0.02096465,-0.99973947
1326901191.92549276,-0.00914612,0.02107498,-0.99973606
1326901191.97277927,-0.00889485,0.02136960,-0.99973207
1326901192.02463627,-0.00901378,0.02139608,-0.99973044
1326901192.07262135,-0.00901787,0.02149921,-0.99972819
1326901192.12166023,-0.00876230,0.02158298,-0.99972866
1326901192.17350864,-0.00875366,0.02164640,-0.99972737
1326901192.22466016,-0.00859207,0.02173990,-0.99972674
1326901192.27268982,-0.00863356,0.02190120,-0.99972286
1326901192.32461452,-0.00880502,0.02186237,-0.99972222
1326901192.37351990,-0.00869586,0.02183757,-0.99972371
1326901192.42166996,-0.00880786,0.02168352,-0.99972609
1326901192.47352076,-0.00865958,0.02153353,-0.99973062
1326901192.52166939,-0.00884627,0.02161644,-0.99972720
1326901192.57350636,-0.00900015,0.02150190,-0.99972830
1326901192.62148762,-0.00892877,0.02151102,-0.99972874
1326901192.67352796,-0.00897914,0.02151788,-0.99972814
1326901192.72151423,-0.00891023,0.02175021,-0.99972373
1326901192.77259135,-0.00879320,0.02178190,-0.99972408
1326901192.82563829,-0.00899058,0.02199753,-0.99971760
1326901192.87353301,-0.00891092,0.02209611,-0.99971614
1326901192.92464399,-0.00898635,0.02233592,-0.99971013
1326901192.97351694,-0.00833738,0.02249521,-0.99971219
1326901193.02196217,-0.00829140,0.02272499,-0.99970737
1326901193.07665849,-0.00845940,0.02272095,-0.99970606
1326901193.12150621,-0.00838056,0.02280174,-0.99970488
1326901193.17322135,-0.00819916,0.02276560,-0.99970721
1326901193.22463560,-0.00803619,0.02273068,-0.99970933
1326901193.27353191,-0.00798654,0.02265661,-0.99971140
1326901193.32553673,-0.00798670,0.02275425,-0.99970919
1326901193.37354136,-0.00820355,0.02294715,-0.99970302
1326901193.42150259,-0.00832195,0.02311109,-0.99969827
1326901193.47253942,-0.00824461,0.02265019,-0.99970946
1326901193.52157259,-0.00820214,0.02263635,-0.99971012
1326901193.57264113,-0.00811360,0.02259030,-0.99971188
1326901193.62211370,-0.00811473,0.02298066,-0.99970298
1326901193.67350674,-0.00797909,0.02283759,-0.99970735
1326901193.72583079,-0.00736089,0.02286318,-0.99971150
1326901193.77361441,-0.00738113,0.02289698,-0.99971058
1326901193.82454062,-0.00756670,0.02283725,-0.99971056
1326901193.87365079,-0.00756914,0.02276266,-0.99971224
1326901193.92158151,-0.00759186,0.02268470,-0.99971384
1326901193.97355270,-0.00733839,0.02247209,-0.99972054
1326901194.02517891,-0.00731837,0.02260120,-0.99971777
1326901194.07350945,-0.00737696,0.02264678,-0.99971631
1326901194.12506247,-0.00713873,0.02291914,-0.99971183
1326901194.17353797,-0.00712024,0.02294095,-0.99971147
1326901194.22504711,-0.00736809,0.02194095,-0.99973212
1326901194.27254319,-0.00735845,0.02195791,-0.99973182
1326901194.32551622,-0.00718937,0.02188380,-0.99973467
1326901194.37292671,-0.00709692,0.02187912,-0.99973543
1326901194.42492843,-0.00694596,0.02198460,-0.99973418
1326901194.47280312,-0.00709943,0.02117017,-0.99975068
1326901194.52272153,-0.00691692,0.02111357,-0.99975316
1326901194.57350707,-0.00675674,0.02096077,-0.99975747
1326901194.61249542,-0.00668547,0.02097057,-0.99975774
1326901194.67279243,-0.00659424,0.02075134,-0.99976292
1326901194.72961473,-0.00648528,0.02004983,-0.99977795
1326901194.77254915,-0.00631455,0.02003570,-0.99977932
1326901194.82500243,-0.00629917,0.02020448,-0.99977602
1326901194.87251759,-0.00623724,0.02013324,-0.99977785
1326901194.92566657,-0.00546062,0.01930582,-0.99979871
1326901194.97350597,-0.00542847,0.01949503,-0.99979522
1326901195.02552342,-0.00544760,0.01959324,-0.99979319
1326901195.07252645,-0.00527481,0.01965574,-0.99979289
1326901195.12551451,-0.00527131,0.01976708,-0.99979072
1326901195.17350316,-0.00498175,0.01918530,-0.99980353
1326901195.22463179,-0.00491677,0.01939623,-0.99979979
1326901195.27350211,-0.00472235,0.01950447,-0.99979862
1326901195.32194996,-0.00444879,0.01959811,-0.99979804
1326901195.37264848,-0.00429363,0.01972051,-0.99979631
1326901195.42150760,-0.00415468,0.01976276,-0.99979607
1326901195.47413826,-0.00452660,0.01936193,-0.99980229
1326901195.52148294,-0.00465187,0.01919066,-0.99980502
1326901195.57305837,-0.00469944,0.01906288,-0.99980724
1326901195.62555432,-0.00461713,0.01918578,-0.99980528
1326901195.67356205,-0.00524801,0.01856405,-0.99981390
1326901195.72275662,-0.00520274,0.01859982,-0.99981347
1326901195.77350664,-0.00514562,0.01848873,-0.99981583
1326901195.82552648,-0.00517999,0.01846730,-0.99981605
1326901195.87500715,-0.00525326,0.01843938,-0.99981618
1326901195.92534709,-0.00519415,0.01815503,-0.99982169
1326901195.97258639,-0.00506321,0.01846712,-0.99981665
1326901196.02195144,-0.00515168,0.01858969,-0.99981392
1326901196.07351828,-0.00512989,0.01890395,-0.99980814
1326901196.12160015,-0.00487203,0.01915849,-0.99980459
1326901196.17371011,-0.00465023,0.01908937,-0.99980697
1326901196.22456241,-0.00463551,0.01915748,-0.99980573
1326901196.27352214,-0.00455208,0.01890434,-0.99981093
